Weather History for St. Paul Lake Elmo, MN

Change the Weather History Date:

Monday, November 11, 2013

  Actual Average (KSTP) Record (KSTP)
Temperature  
Mean Temperature 26 °F -  
Max Temperature 37 °F 42 °F 63 °F (2005)
Min Temperature 14 °F 27 °F 15 °F (1996)
Degree Days  
Heating Degree Days 39    
Moisture  
Dew Point 15 °F    
Average Humidity 64    
Maximum Humidity 87    
Minimum Humidity 43    
Precipitation  
Precipitation 0.00 in - - ()
Sea Level Pressure  
Sea Level Pressure 30.43 in    
Wind  
Wind Speed 11 mph (NNW)    
Max Wind Speed 17 mph    
Max Gust Speed 24 mph    
Visibility 10 miles    
Events Rain , Snow    
Averages and records for this station are not official NWS values.
T = Trace of Precipitation, MM = Missing Value Source: NWS Daily Summary

Daily Weather History Graph

Daily Weather History Graph

Search for Another Location

Airport:

Trip Planner

Search our weather history database for the weather conditions in past years. The results will help you decide how hot, cold, wet, or windy it might be!

Date:

Astronomy

Nov. 11, 2013 Rise Set
Actual Time 7:03 AM CST 4:46 PM CST
Civil Twilight 6:32 AM CST 5:17 PM CST
Nautical Twilight 5:57 AM CST 5:53 PM CST
Astronomical Twilight 5:22 AM CST 6:27 PM CST
Moon 1:41 PM CST (11/11) 12:33 AM CST (11/11)
Length of Visible Light 10h 45m
Length of Day
9h 42m
Waxing Gibbous, 66% of the Moon is Illuminated
Nov 11
Waxing Gibbous
Nov 17
Full
Nov 25
Last Quarter
Dec 2
New
Dec 9
First Quarter

Hourly Weather History & Observations

Time (CST) Temp. Windchill Dew Point Humidity Pressure Visibility Wind Dir Wind Speed Gust Speed Precip Events Conditions
12:12 AM 37.4 °F 31.4 °F 32.0 °F 81% 30.11 in 10.0 mi WNW 8.1 mph - N/A   Overcast
12:32 AM 37.4 °F 29.8 °F 32.0 °F 81% 30.11 in 10.0 mi NW 11.5 mph - N/A   Light Drizzle
12:51 AM 35.6 °F 28.0 °F 32.0 °F 87% 30.12 in 10.0 mi NNW 10.4 mph - N/A   Light Drizzle
1:12 AM 35.6 °F 29.2 °F 32.0 °F 87% 30.12 in 10.0 mi NNW 8.1 mph - N/A   Light Drizzle
1:32 AM 35.6 °F 28.0 °F 32.0 °F 87% 30.12 in 10.0 mi NNW 10.4 mph - N/A   Overcast
1:51 AM 35.6 °F 28.6 °F 32.0 °F 87% 30.13 in 10.0 mi NNW 9.2 mph - N/A   Overcast
2:12 AM 35.6 °F 27.5 °F 30.2 °F 81% 30.13 in 10.0 mi NNW 11.5 mph 16.1 mph N/A Rain Light Rain
2:32 AM 35.6 °F 27.1 °F 32.0 °F 87% 30.15 in 10.0 mi NNW 12.7 mph 18.4 mph N/A Rain Light Rain
2:51 AM 33.8 °F 24.8 °F 30.2 °F 87% 30.17 in 5.0 mi NNW 12.7 mph 24.2 mph N/A Snow Light Snow
3:12 AM 32.0 °F 22.5 °F 28.4 °F 87% 30.17 in 7.0 mi NW 12.7 mph 16.1 mph N/A Snow Light Snow
3:31 AM 32.0 °F 23.6 °F 26.6 °F 80% 30.18 in 5.0 mi NNW 10.4 mph - N/A Snow Light Snow
3:52 AM 32.0 °F 24.2 °F 23.0 °F 69% 30.19 in 10.0 mi NNW 9.2 mph - N/A   Overcast
4:11 AM 30.2 °F 21.3 °F 21.2 °F 69% 30.20 in 10.0 mi NNW 10.4 mph 17.3 mph N/A   Overcast
4:32 AM 30.2 °F 19.3 °F 21.2 °F 69% 30.22 in 10.0 mi North 15.0 mph 20.7 mph N/A   Overcast
4:52 AM 30.2 °F 18.5 °F 19.4 °F 64% 30.23 in 10.0 mi North 17.3 mph 20.7 mph N/A   Overcast
5:12 AM 28.4 °F 18.5 °F 14.0 °F 55% 30.25 in 10.0 mi North 11.5 mph 18.4 mph N/A   Overcast
5:32 AM 28.4 °F 16.6 °F 14.0 °F 55% 30.26 in 10.0 mi North 16.1 mph 20.7 mph N/A   Overcast
5:52 AM 26.6 °F 16.2 °F 12.2 °F 55% 30.27 in 10.0 mi North 11.5 mph 21.9 mph N/A   Overcast
6:12 AM 26.6 °F 14.7 °F 10.4 °F 51% 30.28 in 10.0 mi North 15.0 mph 18.4 mph N/A   Overcast
6:31 AM 26.6 °F 14.3 °F 12.2 °F 55% 30.30 in 10.0 mi North 16.1 mph 21.9 mph N/A   Overcast
6:52 AM 24.8 °F 14.0 °F 12.2 °F 59% 30.31 in 10.0 mi North 11.5 mph 16.1 mph N/A   Overcast
7:11 AM 23.0 °F 10.6 °F 12.2 °F 63% 30.33 in 10.0 mi NNW 13.8 mph 20.7 mph N/A   Overcast
7:32 AM 23.0 °F 10.1 °F 12.2 °F 63% 30.34 in 10.0 mi North 15.0 mph - N/A   Overcast
7:52 AM 23.0 °F 10.6 °F 12.2 °F 63% 30.36 in 10.0 mi North 13.8 mph 21.9 mph N/A   Overcast
8:11 AM 23.0 °F 9.6 °F 12.2 °F 63% 30.38 in 10.0 mi North 16.1 mph 23.0 mph N/A   Mostly Cloudy
8:32 AM 23.0 °F 12.4 °F 12.2 °F 63% 30.39 in 10.0 mi North 10.4 mph 17.3 mph N/A   Overcast
8:51 AM 23.0 °F 10.6 °F 12.2 °F 63% 30.39 in 10.0 mi North 13.8 mph 19.6 mph N/A   Overcast
9:12 AM 23.0 °F 10.6 °F 12.2 °F 63% 30.40 in 10.0 mi North 13.8 mph - N/A   Overcast
9:32 AM 23.0 °F 10.6 °F 12.2 °F 63% 30.41 in 10.0 mi NNW 13.8 mph 19.6 mph N/A   Overcast
9:51 AM 23.0 °F 10.6 °F 12.2 °F 63% 30.41 in 10.0 mi North 13.8 mph - N/A   Overcast
10:12 AM 24.8 °F 13.4 °F 12.2 °F 59% 30.42 in 10.0 mi North 12.7 mph - N/A   Overcast
10:32 AM 24.8 °F 12.9 °F 12.2 °F 59% 30.43 in 10.0 mi North 13.8 mph 20.7 mph N/A   Mostly Cloudy
10:51 AM 24.8 °F 14.6 °F 12.2 °F 59% 30.44 in 10.0 mi North 10.4 mph 16.1 mph N/A   Mostly Cloudy
11:12 AM 23.0 °F 10.6 °F 10.4 °F 59% 30.44 in 10.0 mi North 13.8 mph 20.7 mph N/A   Scattered Clouds
11:31 AM 23.0 °F 11.7 °F 10.4 °F 59% 30.45 in 10.0 mi North 11.5 mph - N/A   Scattered Clouds
11:52 AM 24.8 °F 14.6 °F 12.2 °F 59% 30.45 in 10.0 mi North 10.4 mph 18.4 mph N/A   Scattered Clouds
12:12 PM 26.6 °F 15.7 °F 12.2 °F 55% 30.45 in 10.0 mi NNW 12.7 mph 17.3 mph N/A   Mostly Cloudy
12:31 PM 26.6 °F 16.8 °F 12.2 °F 55% 30.46 in 10.0 mi North 10.4 mph 16.1 mph N/A   Scattered Clouds
12:52 PM 28.4 °F 18.5 °F 12.2 °F 51% 30.45 in 10.0 mi NNW 11.5 mph 20.7 mph N/A   Scattered Clouds
1:12 PM 28.4 °F 18.0 °F 12.2 °F 51% 30.46 in 10.0 mi North 12.7 mph 18.4 mph N/A   Scattered Clouds
1:31 PM 28.4 °F 19.1 °F 10.4 °F 47% 30.46 in 10.0 mi NNW 10.4 mph 21.9 mph N/A   Scattered Clouds
1:52 PM 28.4 °F 18.5 °F 10.4 °F 47% 30.46 in 10.0 mi NNW 11.5 mph - N/A   Clear
2:11 PM 28.4 °F 18.0 °F 10.4 °F 47% 30.47 in 10.0 mi NNW 12.7 mph 19.6 mph N/A   Scattered Clouds
2:32 PM 28.4 °F 17.0 °F 8.6 °F 43% 30.48 in 10.0 mi NNW 15.0 mph 19.6 mph N/A   Scattered Clouds
2:51 PM 28.4 °F 18.5 °F 10.4 °F 47% 30.48 in 10.0 mi North 11.5 mph - N/A   Clear
3:12 PM 28.4 °F 17.0 °F 8.6 °F 43% 30.49 in 10.0 mi NNW 15.0 mph 19.6 mph N/A   Clear
3:32 PM 26.6 °F 16.2 °F 8.6 °F 47% 30.50 in 10.0 mi North 11.5 mph 19.6 mph N/A   Clear
3:51 PM 26.6 °F 15.7 °F 10.4 °F 51% 30.51 in 10.0 mi NNW 12.7 mph 17.3 mph N/A   Clear
4:12 PM 26.6 °F 15.2 °F 10.4 °F 51% 30.52 in 10.0 mi NNW 13.8 mph - N/A   Clear
4:32 PM 24.8 °F 16.1 °F 10.4 °F 54% 30.53 in 10.0 mi NNW 8.1 mph - N/A   Clear
4:51 PM 24.8 °F 13.4 °F 10.4 °F 54% 30.54 in 10.0 mi NW 12.7 mph 17.3 mph N/A   Clear
5:12 PM 23.0 °F 11.1 °F 10.4 °F 59% 30.55 in 10.0 mi NNW 12.7 mph - N/A   Clear
5:32 PM 23.0 °F 12.4 °F 10.4 °F 59% 30.56 in 10.0 mi NNW 10.4 mph - N/A   Clear
5:51 PM 23.0 °F 11.7 °F 10.4 °F 59% 30.57 in 10.0 mi NNW 11.5 mph - N/A   Clear
6:12 PM 21.2 °F 10.9 °F 10.4 °F 63% 30.58 in 10.0 mi NNW 9.2 mph - N/A   Clear
6:31 PM 21.2 °F 10.1 °F 10.4 °F 63% 30.59 in 10.0 mi NNW 10.4 mph 16.1 mph N/A   Clear
6:52 PM 21.2 °F 10.1 °F 10.4 °F 63% 30.59 in 10.0 mi NNW 10.4 mph - N/A   Clear
7:12 PM 21.2 °F 10.1 °F 10.4 °F 63% 30.61 in 10.0 mi NNW 10.4 mph - N/A   Clear
7:31 PM 21.2 °F 10.1 °F 10.4 °F 63% 30.61 in 10.0 mi NNW 10.4 mph - N/A   Clear
7:52 PM 19.4 °F 9.5 °F 10.4 °F 68% 30.62 in 10.0 mi NNW 8.1 mph - N/A   Clear
8:11 PM 19.4 °F 9.5 °F 10.4 °F 68% 30.63 in 10.0 mi NNW 8.1 mph - N/A   Clear
8:32 PM 19.4 °F 8.6 °F 10.4 °F 68% 30.64 in 10.0 mi NNW 9.2 mph - N/A   Clear
8:52 PM 19.4 °F 7.9 °F 10.4 °F 68% 30.65 in 10.0 mi NNW 10.4 mph - N/A   Clear
9:11 PM 19.4 °F 10.4 °F 10.4 °F 68% 30.66 in 10.0 mi NNW 6.9 mph - N/A   Clear
9:32 PM 17.6 °F 7.3 °F 10.4 °F 73% 30.68 in 10.0 mi NNW 8.1 mph - N/A   Clear
9:52 PM 17.6 °F 9.3 °F 10.4 °F 73% 30.68 in 10.0 mi NNW 5.8 mph - N/A   Clear
10:11 PM 17.6 °F 10.7 °F 10.4 °F 73% 30.68 in 10.0 mi NNW 4.6 mph - N/A   Clear
10:32 PM 17.6 °F 10.7 °F 10.4 °F 73% 30.69 in 10.0 mi NNW 4.6 mph - N/A   Clear
10:51 PM 15.8 °F 10.2 °F 10.4 °F 79% 30.70 in 10.0 mi NNW 3.5 mph - N/A   Clear
11:12 PM 15.8 °F - 10.4 °F 79% 30.70 in 10.0 mi Calm Calm - N/A   Clear
11:32 PM 15.8 °F - 10.4 °F 79% 30.70 in 10.0 mi Calm Calm - N/A   Clear
11:51 PM 14.0 °F - 10.4 °F 86% 30.71 in 10.0 mi Calm Calm - N/A   Clear